| time (UTC) | temp F | wind direction | speed MPH | gust MPH | rain 1hr in | rain 24hr in | rain mn in | humidity % | barometer mb |
| 20260510091003 | 59 | 353 | 0.0 | 3.0 | 0.00 | 0.05 | 0.00 | 76 | 1010.5 |
| 20260510090503 | 59 | 355 | 0.0 | 1.0 | 0.00 | 0.05 | 0.00 | 78 | 1010.5 |
| 20260510090003 | 59 | 355 | 0.0 | 1.0 | 0.00 | 0.05 | 0.00 | 79 | 1010.3 |
| 20260510085718 | 59 | 355 | 0.0 | 1.0 | 0.00 | 0.05 | 0.00 | 78 | 1010.2 |
| 20260510085003 | 60 | 0 | 0.0 | 0.0 | 0.00 | 0.05 | 0.00 | 77 | 1010.3 |
| 20260510084718 | 60 | 0 | 0.0 | 0.0 | 0.00 | 0.05 | 0.00 | 77 | 1010.4 |
| 20260510084003 | 61 | 0 | 0.0 | 0.0 | 0.00 | 0.05 | 0.00 | 78 | 1010.4 |
| 20260510083503 | 61 | 5 | 0.0 | 1.0 | 0.00 | 0.05 | 0.00 | 77 | 1010.4 |
| 20260510083003 | 61 | 59 | 0.0 | 2.0 | 0.00 | 0.05 | 0.00 | 76 | 1010.4 |
| 20260510082503 | 61 | 53 | 1.0 | 2.0 | 0.00 | 0.05 | 0.00 | 76 | 1010.3 |
| 20260510082217 | 61 | 55 | 1.0 | 2.0 | 0.00 | 0.05 | 0.00 | 76 | 1010.3 |
| 20260510081718 | 61 | 274 | 0.0 | 2.0 | 0.00 | 0.05 | 0.00 | 76 | 1010.5 |
| 20260510081003 | 62 | 0 | 0.0 | 0.0 | 0.00 | 0.05 | 0.00 | 76 | 1010.9 |
| 20260510080718 | 62 | 236 | 0.0 | 1.0 | 0.00 | 0.05 | 0.00 | 76 | 1011.1 |
| 20260510080003 | 62 | 235 | 0.0 | 2.0 | 0.00 | 0.05 | 0.00 | 74 | 1011.2 |
| 20260510075503 | 62 | 222 | 0.0 | 1.0 | 0.00 | 0.05 | 0.00 | 74 | 1011.2 |
| 20260510075003 | 62 | 222 | 0.0 | 1.0 | 0.00 | 0.05 | 0.00 | 73 | 1011.4 |
| 20260510074503 | 62 | 246 | 0.0 | 1.0 | 0.00 | 0.05 | 0.00 | 73 | 1011.4 |
| 20260510074003 | 62 | 246 | 0.0 | 1.0 | 0.00 | 0.05 | 0.00 | 73 | 1011.4 |
| 20260510073503 | 62 | 263 | 0.0 | 1.0 | 0.00 | 0.05 | 0.00 | 72 | 1011.2 |
| 20260510073003 | 62 | 263 | 0.0 | 1.0 | 0.00 | 0.05 | 0.00 | 74 | 1011.1 |
| 20260510072503 | 62 | 265 | 0.0 | 1.0 | 0.00 | 0.05 | 0.00 | 75 | 1010.8 |
| 20260510072218 | 62 | 265 | 0.0 | 1.0 | 0.00 | 0.05 | 0.00 | 74 | 1010.6 |
| 20260510071503 | 62 | 0 | 0.0 | 0.0 | 0.00 | 0.05 | 0.00 | 76 | 1010.4 |
| 20260510071003 | 62 | 0 | 0.0 | 0.0 | 0.00 | 0.05 | 0.00 | 78 | 1010.3 |
| 20260510070503 | 62 | 0 | 0.0 | 0.0 | 0.00 | 0.05 | 0.00 | 79 | 1010.2 |
| 20260510070004 | 62 | 0 | 0.0 | 0.0 | 0.00 | 0.05 | 0.00 | 80 | 1010.2 |
| 20260510065503 | 62 | 0 | 0.0 | 0.0 | 0.00 | 0.05 | 0.00 | 81 | 1010.2 |
| 20260510065003 | 61 | 0 | 0.0 | 0.0 | 0.00 | 0.05 | 0.00 | 83 | 1010.1 |
| 20260510064717 | 61 | 0 | 0.0 | 0.0 | 0.00 | 0.05 | 0.00 | 84 | 1010.2 |
| 20260510064003 | 61 | 0 | 0.0 | 0.0 | 0.00 | 0.05 | 0.00 | 86 | 1010.0 |
| 20260510063503 | 61 | 0 | 0.0 | 0.0 | 0.00 | 0.05 | 0.00 | 86 | 1009.8 |
| 20260510063003 | 62 | 0 | 0.0 | 0.0 | 0.00 | 0.05 | 0.00 | 86 | 1009.7 |
| 20260510062503 | 62 | 0 | 0.0 | 0.0 | 0.00 | 0.05 | 0.00 | 85 | 1009.6 |
| 20260510062003 | 62 | 0 | 0.0 | 0.0 | 0.00 | 0.05 | 0.00 | 85 | 1009.5 |
| 20260510061504 | 62 | 0 | 0.0 | 0.0 | 0.00 | 0.05 | 0.00 | 85 | 1009.5 |
| 20260510061218 | 62 | 0 | 0.0 | 0.0 | 0.00 | 0.05 | 0.00 | 85 | 1009.5 |
| 20260510060503 | 62 | 0 | 0.0 | 0.0 | 0.00 | 0.05 | 0.00 | 85 | 1009.5 |
| 20260510060004 | 62 | 0 | 0.0 | 0.0 | 0.00 | 0.05 | 0.00 | 84 | 1009.5 |
| 20260510055504 | 62 | 0 | 0.0 | 0.0 | 0.00 | 0.05 | 0.00 | 84 | 1009.5 |
| 20260510055003 | 63 | 0 | 0.0 | 0.0 | 0.00 | 0.05 | 0.00 | 84 | 1009.4 |
| 20260510054503 | 63 | 0 | 0.0 | 0.0 | 0.00 | 0.05 | 0.00 | 83 | 1009.4 |
| 20260510054003 | 63 | 0 | 0.0 | 0.0 | 0.00 | 0.05 | 0.00 | 83 | 1009.3 |
| 20260510053503 | 63 | 0 | 0.0 | 0.0 | 0.00 | 0.05 | 0.00 | 83 | 1009.3 |
| 20260510053003 | 63 | 0 | 0.0 | 0.0 | 0.00 | 0.05 | 0.00 | 83 | 1009.2 |
| 20260510052503 | 63 | 0 | 0.0 | 0.0 | 0.00 | 0.05 | 0.00 | 83 | 1009.3 |
| 20260510052218 | 63 | 0 | 0.0 | 0.0 | 0.00 | 0.05 | 0.00 | 83 | 1009.3 |
| 20260510051503 | 63 | 0 | 0.0 | 0.0 | 0.00 | 0.05 | 0.00 | 83 | 1009.2 |
| 20260510051218 | 63 | 0 | 0.0 | 0.0 | 0.00 | 0.05 | 0.00 | 83 | 1009.2 |
| 20260510050503 | 63 | 0 | 0.0 | 0.0 | 0.00 | 0.05 | 0.00 | 83 | 1009.2 |
| 20260510050218 | 63 | 0 | 0.0 | 0.0 | 0.00 | 0.05 | 0.00 | 83 | 1009.1 |
| 20260510045719 | 63 | 219 | 0.0 | 1.0 | 0.00 | 0.05 | 0.00 | 83 | 1009.2 |
| 20260510045003 | 63 | 341 | 0.0 | 1.0 | 0.00 | 0.05 | 0.00 | 83 | 1009.0 |
| 20260510044503 | 63 | 359 | 0.0 | 1.0 | 0.00 | 0.05 | 0.00 | 83 | 1009.1 |
| 20260510044004 | 63 | 278 | 0.0 | 1.0 | 0.00 | 0.05 | 0.00 | 83 | 1009.1 |
| 20260510043503 | 63 | 0 | 0.0 | 0.0 | 0.00 | 0.05 | 0.00 | 83 | 1008.9 |
| 20260510043003 | 63 | 0 | 0.0 | 0.0 | 0.00 | 0.05 | 0.00 | 83 | 1008.9 |
| 20260510042503 | 63 | 0 | 0.0 | 0.0 | 0.00 | 0.05 | 0.00 | 82 | 1008.8 |
| 20260510042003 | 63 | 0 | 0.0 | 0.0 | 0.00 | 0.05 | 0.00 | 83 | 1008.8 |
| 20260510041718 | 63 | 0 | 0.0 | 0.0 | 0.00 | 0.05 | 0.00 | 82 | 1008.8 |
| 20260510041217 | 63 | 0 | 0.0 | 0.0 | 0.00 | 0.05 | 0.00 | 83 | 1008.9 |
| 20260510040503 | 63 | 0 | 0.0 | 0.0 | 0.00 | 0.05 | 0.00 | 82 | 1008.9 |
| 20260510040006 | 63 | 0 | 0.0 | 0.0 | 0.00 | 0.05 | 0.00 | 82 | 1008.9 |
| 20260510035503 | 63 | 0 | 0.0 | 0.0 | 0.00 | 0.05 | 0.00 | 82 | 1009.0 |
| 20260510035003 | 64 | 0 | 0.0 | 0.0 | 0.00 | 0.05 | 0.00 | 81 | 1008.9 |
| 20260510034503 | 64 | 0 | 0.0 | 0.0 | 0.00 | 0.05 | 0.00 | 81 | 1008.8 |
| 20260510034003 | 64 | 0 | 0.0 | 0.0 | 0.00 | 0.05 | 0.00 | 80 | 1008.9 |
| 20260510033503 | 64 | 0 | 0.0 | 0.0 | 0.00 | 0.05 | 0.00 | 80 | 1008.9 |
| 20260510033003 | 64 | 0 | 0.0 | 0.0 | 0.00 | 0.05 | 0.00 | 80 | 1008.8 |
| 20260510032503 | 64 | 0 | 0.0 | 0.0 | 0.00 | 0.05 | 0.00 | 80 | 1008.7 |
| 20260510032003 | 64 | 0 | 0.0 | 0.0 | 0.00 | 0.05 | 0.00 | 80 | 1008.7 |
| 20260510031503 | 64 | 0 | 0.0 | 0.0 | 0.00 | 0.05 | 0.00 | 80 | 1008.8 |
| 20260510031003 | 64 | 0 | 0.0 | 0.0 | 0.00 | 0.05 | 0.00 | 80 | 1008.9 |
| 20260510030503 | 65 | 0 | 0.0 | 0.0 | 0.00 | 0.05 | 0.00 | 80 | 1009.0 |
| 20260510030004 | 65 | 0 | 0.0 | 0.0 | 0.00 | 0.05 | 0.00 | 80 | 1008.9 |
| 20260510025718 | 65 | 0 | 0.0 | 0.0 | 0.00 | 0.05 | 0.00 | 80 | 1008.9 |
| 20260510025003 | 65 | 0 | 0.0 | 0.0 | 0.00 | 0.05 | 0.00 | 80 | 1008.7 |
| 20260510024503 | 65 | 0 | 0.0 | 0.0 | 0.00 | 0.05 | 0.00 | 79 | 1008.8 |
| 20260510024003 | 65 | 0 | 0.0 | 0.0 | 0.00 | 0.05 | 0.00 | 79 | 1008.7 |
| 20260510023718 | 66 | 0 | 0.0 | 0.0 | 0.00 | 0.05 | 0.00 | 79 | 1008.6 |
| 20260510023003 | 66 | 0 | 0.0 | 0.0 | 0.00 | 0.05 | 0.00 | 79 | 1008.5 |
| 20260510022503 | 66 | 0 | 0.0 | 0.0 | 0.00 | 0.05 | 0.00 | 78 | 1008.5 |
| 20260510022003 | 66 | 0 | 0.0 | 0.0 | 0.00 | 0.05 | 0.00 | 78 | 1008.5 |
| 20260510021503 | 66 | 0 | 0.0 | 0.0 | 0.00 | 0.05 | 0.00 | 78 | 1008.3 |
| 20260510021003 | 66 | 0 | 0.0 | 0.0 | 0.00 | 0.05 | 0.00 | 78 | 1008.2 |
| 20260510020503 | 67 | 0 | 0.0 | 0.0 | 0.00 | 0.05 | 0.00 | 78 | 1008.2 |
| 20260510020218 | 67 | 0 | 0.0 | 0.0 | 0.00 | 0.05 | 0.00 | 78 | 1008.1 |
| 20260510015503 | 67 | 0 | 0.0 | 0.0 | 0.00 | 0.05 | 0.00 | 77 | 1008.0 |
| 20260510015003 | 67 | 0 | 0.0 | 0.0 | 0.00 | 0.05 | 0.00 | 77 | 1008.0 |
| 20260510014503 | 67 | 0 | 0.0 | 0.0 | 0.00 | 0.05 | 0.00 | 76 | 1008.0 |
| 20260510014003 | 68 | 0 | 0.0 | 0.0 | 0.00 | 0.05 | 0.00 | 76 | 1007.8 |
| 20260510013503 | 68 | 0 | 0.0 | 0.0 | 0.00 | 0.05 | 0.00 | 76 | 1007.8 |
| 20260510013003 | 68 | 0 | 0.0 | 0.0 | 0.00 | 0.05 | 0.00 | 76 | 1007.6 |
| 20260510012504 | 68 | 0 | 0.0 | 0.0 | 0.00 | 0.05 | 0.00 | 75 | 1007.6 |
| 20260510012003 | 69 | 0 | 0.0 | 0.0 | 0.00 | 0.05 | 0.00 | 75 | 1007.5 |
| 20260510011503 | 69 | 0 | 0.0 | 0.0 | 0.00 | 0.05 | 0.00 | 75 | 1007.5 |
| 20260510011003 | 70 | 0 | 0.0 | 0.0 | 0.00 | 0.05 | 0.00 | 74 | 1007.3 |
| 20260510010503 | 70 | 0 | 0.0 | 0.0 | 0.00 | 0.05 | 0.00 | 73 | 1007.3 |
| 20260510010003 | 70 | 0 | 0.0 | 0.0 | 0.00 | 0.05 | 0.00 | 72 | 1007.3 |
| 20260510005503 | 71 | 0 | 0.0 | 0.0 | 0.00 | 0.05 | 0.00 | 71 | 1007.3 |
| 20260510005003 | 71 | 0 | 0.0 | 0.0 | 0.00 | 0.05 | 0.00 | 70 | 1007.4 |
| 20260510004503 | 72 | 0 | 0.0 | 0.0 | 0.00 | 0.05 | 0.00 | 70 | 1007.3 |
| 20260510004003 | 72 | 0 | 0.0 | 0.0 | 0.00 | 0.05 | 0.00 | 69 | 1007.2 |
| 20260510003503 | 72 | 242 | 0.0 | 1.0 | 0.00 | 0.05 | 0.00 | 68 | 1007.2 |
| 20260510003004 | 72 | 241 | 0.0 | 1.0 | 0.00 | 0.05 | 0.00 | 67 | 1007.2 |
| 20260510002503 | 73 | 239 | 0.0 | 1.0 | 0.00 | 0.05 | 0.00 | 66 | 1007.2 |
| 20260510002003 | 73 | 234 | 0.0 | 1.0 | 0.00 | 0.05 | 0.00 | 66 | 1007.1 |
| 20260510001503 | 73 | 234 | 0.0 | 1.0 | 0.00 | 0.05 | 0.00 | 65 | 1007.1 |
| 20260510001003 | 73 | 0 | 0.0 | 0.0 | 0.00 | 0.05 | 0.00 | 65 | 1007.0 |
| 20260510000503 | 74 | 0 | 0.0 | 0.0 | 0.00 | 0.05 | 0.00 | 63 | 1006.8 |
| 20260510000003 | 74 | 0 | 0.0 | 0.0 | 0.00 | 0.05 | 0.00 | 63 | 1006.8 |
| 20260509235717 | 74 | 0 | 0.0 | 0.0 | 0.00 | 0.05 | 0.00 | 62 | 1006.8 |
| 20260509235003 | 74 | 239 | 0.0 | 2.0 | 0.00 | 0.05 | 0.00 | 62 | 1006.9 |
| 20260509234503 | 74 | 239 | 0.0 | 2.0 | 0.00 | 0.05 | 0.00 | 62 | 1006.8 |
| 20260509234003 | 74 | 0 | 0.0 | 0.0 | 0.00 | 0.05 | 0.00 | 61 | 1006.7 |
| 20260509233717 | 74 | 0 | 0.0 | 0.0 | 0.00 | 0.05 | 0.00 | 62 | 1006.7 |
| 20260509233003 | 75 | 0 | 0.0 | 0.0 | 0.00 | 0.05 | 0.00 | 60 | 1006.8 |
| 20260509232503 | 75 | 283 | 0.0 | 1.0 | 0.00 | 0.05 | 0.00 | 60 | 1006.7 |
| 20260509232003 | 75 | 271 | 0.0 | 1.0 | 0.00 | 0.05 | 0.00 | 60 | 1006.5 |
| 20260509231503 | 75 | 270 | 0.0 | 1.0 | 0.00 | 0.05 | 0.00 | 59 | 1006.5 |
| 20260509231003 | 75 | 280 | 0.0 | 1.0 | 0.00 | 0.05 | 0.00 | 60 | 1006.6 |
| 20260509230503 | 75 | 241 | 0.0 | 2.0 | 0.00 | 0.05 | 0.00 | 59 | 1006.7 |
| 20260509230217 | 75 | 241 | 0.0 | 2.0 | 0.00 | 0.05 | 0.00 | 59 | 1006.8 |
| 20260509225719 | 75 | 247 | 1.0 | 5.0 | 0.00 | 0.05 | 0.00 | 60 | 1006.7 |
| 20260509225003 | 75 | 248 | 1.0 | 5.0 | 0.00 | 0.05 | 0.00 | 58 | 1006.7 |
| 20260509224503 | 75 | 236 | 1.0 | 5.0 | 0.00 | 0.05 | 0.00 | 59 | 1006.7 |
| 20260509224004 | 75 | 230 | 1.0 | 5.0 | 0.00 | 0.05 | 0.00 | 59 | 1006.7 |
| 20260509223718 | 75 | 225 | 0.0 | 4.0 | 0.00 | 0.05 | 0.00 | 59 | 1006.6 |
| 20260509223003 | 75 | 239 | 0.0 | 3.0 | 0.00 | 0.05 | 0.00 | 59 | 1006.6 |
| 20260509222503 | 75 | 244 | 0.0 | 2.0 | 0.00 | 0.05 | 0.00 | 59 | 1006.6 |
| 20260509222003 | 75 | 251 | 0.0 | 4.0 | 0.00 | 0.05 | 0.00 | 60 | 1006.5 |
| 20260509221503 | 75 | 256 | 0.0 | 4.0 | 0.00 | 0.05 | 0.00 | 59 | 1006.5 |
| 20260509221003 | 75 | 265 | 0.0 | 2.0 | 0.00 | 0.05 | 0.00 | 61 | 1006.5 |
| 20260509220503 | 75 | 227 | 1.0 | 3.0 | 0.00 | 0.05 | 0.00 | 62 | 1006.5 |
| 20260509220004 | 75 | 253 | 1.0 | 3.0 | 0.00 | 0.05 | 0.00 | 62 | 1006.5 |
| 20260509215503 | 75 | 282 | 1.0 | 3.0 | 0.00 | 0.05 | 0.00 | 61 | 1006.5 |
| 20260509215003 | 75 | 274 | 0.0 | 2.0 | 0.00 | 0.05 | 0.00 | 61 | 1006.6 |
| 20260509214503 | 75 | 251 | 0.0 | 4.0 | 0.00 | 0.05 | 0.00 | 63 | 1006.6 |
| 20260509214217 | 75 | 254 | 1.0 | 4.0 | 0.00 | 0.05 | 0.00 | 62 | 1006.6 |
| 20260509213718 | 75 | 249 | 1.0 | 5.0 | 0.00 | 0.05 | 0.00 | 61 | 1006.6 |
| 20260509213003 | 75 | 235 | 1.0 | 5.0 | 0.00 | 0.05 | 0.00 | 62 | 1006.5 |
| 20260509212503 | 75 | 254 | 1.0 | 5.0 | 0.00 | 0.05 | 0.00 | 64 | 1006.4 |
| 20260509212003 | 75 | 263 | 1.0 | 6.0 | 0.00 | 0.05 | 0.00 | 62 | 1006.5 |
| 20260509211718 | 75 | 263 | 1.0 | 6.0 | 0.00 | 0.05 | 0.00 | 62 | 1006.6 |
| 20260509211003 | 75 | 280 | 0.0 | 2.0 | 0.00 | 0.05 | 0.00 | 62 | 1006.5 |
| 20260509210503 | 75 | 252 | 1.0 | 3.0 | 0.00 | 0.05 | 0.00 | 62 | 1006.5 |
| 20260509210003 | 75 | 255 | 1.0 | 3.0 | 0.00 | 0.05 | 0.00 | 65 | 1006.5 |
| 20260509205503 | 74 | 270 | 1.0 | 7.0 | 0.00 | 0.05 | 0.00 | 65 | 1006.4 |
| 20260509205217 | 74 | 269 | 1.0 | 7.0 | 0.00 | 0.05 | 0.00 | 65 | 1006.4 |
| 20260509204504 | 74 | 274 | 1.0 | 4.0 | 0.00 | 0.05 | 0.00 | 63 | 1006.4 |
| 20260509204003 | 74 | 269 | 1.0 | 5.0 | 0.00 | 0.05 | 0.00 | 65 | 1006.4 |
| 20260509203718 | 74 | 257 | 2.0 | 8.0 | 0.00 | 0.05 | 0.00 | 63 | 1006.3 |
| 20260509203003 | 74 | 247 | 1.0 | 8.0 | 0.00 | 0.05 | 0.00 | 63 | 1006.3 |
| 20260509202503 | 74 | 227 | 1.0 | 6.0 | 0.00 | 0.05 | 0.00 | 65 | 1006.3 |
| 20260509202003 | 74 | 234 | 1.0 | 6.0 | 0.00 | 0.05 | 0.00 | 64 | 1006.3 |
| 20260509201503 | 74 | 255 | 1.0 | 4.0 | 0.00 | 0.05 | 0.00 | 65 | 1006.4 |
| 20260509201218 | 74 | 245 | 1.0 | 4.0 | 0.00 | 0.05 | 0.00 | 63 | 1006.4 |
| 20260509200503 | 73 | 223 | 1.0 | 7.0 | 0.00 | 0.05 | 0.00 | 66 | 1006.6 |
| 20260509200218 | 74 | 221 | 1.0 | 7.0 | 0.00 | 0.05 | 0.00 | 64 | 1006.6 |
| 20260509195503 | 74 | 232 | 1.0 | 4.0 | 0.00 | 0.05 | 0.00 | 64 | 1006.7 |
| 20260509195003 | 74 | 230 | 0.0 | 3.0 | 0.00 | 0.05 | 0.00 | 66 | 1006.8 |
| 20260509194503 | 74 | 243 | 1.0 | 5.0 | 0.00 | 0.05 | 0.00 | 65 | 1006.8 |
| 20260509194003 | 73 | 245 | 1.0 | 5.0 | 0.00 | 0.05 | 0.00 | 65 | 1006.8 |
| 20260509193503 | 74 | 241 | 1.0 | 5.0 | 0.00 | 0.05 | 0.00 | 66 | 1006.9 |
| 20260509193218 | 74 | 231 | 0.0 | 5.0 | 0.00 | 0.05 | 0.00 | 66 | 1006.8 |
| 20260509192503 | 73 | 223 | 1.0 | 4.0 | 0.00 | 0.05 | 0.00 | 66 | 1006.8 |
| 20260509192003 | 73 | 216 | 1.0 | 8.0 | 0.00 | 0.05 | 0.00 | 65 | 1006.8 |
| 20260509191503 | 73 | 232 | 1.0 | 8.0 | 0.00 | 0.05 | 0.00 | 66 | 1006.9 |
| 20260509191003 | 73 | 237 | 1.0 | 6.0 | 0.00 | 0.05 | 0.00 | 65 | 1006.9 |
| 20260509190503 | 73 | 225 | 1.0 | 4.0 | 0.00 | 0.05 | 0.00 | 66 | 1006.9 |
| 20260509190218 | 73 | 233 | 1.0 | 4.0 | 0.00 | 0.05 | 0.00 | 66 | 1006.9 |
| 20260509185503 | 73 | 222 | 1.0 | 4.0 | 0.00 | 0.05 | 0.00 | 66 | 1006.9 |
| 20260509185003 | 72 | 229 | 1.0 | 5.0 | 0.00 | 0.05 | 0.00 | 69 | 1007.0 |
| 20260509184503 | 72 | 251 | 1.0 | 5.0 | 0.00 | 0.05 | 0.00 | 68 | 1007.0 |
| 20260509184218 | 72 | 251 | 1.0 | 5.0 | 0.00 | 0.05 | 0.00 | 69 | 1007.1 |
| 20260509183504 | 72 | 215 | 0.0 | 3.0 | 0.00 | 0.05 | 0.00 | 71 | 1007.0 |
| 20260509183003 | 72 | 198 | 1.0 | 3.0 | 0.00 | 0.05 | 0.00 | 71 | 1006.9 |
| 20260509182503 | 71 | 204 | 1.0 | 5.0 | 0.00 | 0.05 | 0.00 | 71 | 1007.0 |
| 20260509182003 | 71 | 222 | 1.0 | 5.0 | 0.00 | 0.05 | 0.00 | 72 | 1007.1 |
| 20260509181503 | 70 | 234 | 1.0 | 4.0 | 0.00 | 0.05 | 0.00 | 73 | 1007.0 |
| 20260509181003 | 70 | 236 | 1.0 | 4.0 | 0.00 | 0.05 | 0.00 | 73 | 1007.0 |
| 20260509180503 | 70 | 230 | 1.0 | 6.0 | 0.00 | 0.05 | 0.00 | 73 | 1007.1 |
| 20260509180217 | 69 | 225 | 2.0 | 7.0 | 0.00 | 0.05 | 0.00 | 72 | 1007.1 |
| 20260509175503 | 70 | 204 | 1.0 | 7.0 | 0.00 | 0.05 | 0.00 | 75 | 1007.1 |
| 20260509175003 | 69 | 217 | 1.0 | 9.0 | 0.00 | 0.05 | 0.00 | 75 | 1007.1 |
| 20260509174503 | 69 | 216 | 1.0 | 9.0 | 0.00 | 0.05 | 0.00 | 75 | 1007.2 |
| 20260509174004 | 68 | 234 | 1.0 | 7.0 | 0.00 | 0.05 | 0.00 | 77 | 1007.3 |
| 20260509173503 | 68 | 225 | 1.0 | 7.0 | 0.00 | 0.05 | 0.00 | 75 | 1007.5 |
| 20260509173217 | 68 | 219 | 1.0 | 7.0 | 0.00 | 0.05 | 0.00 | 78 | 1007.5 |
| 20260509172503 | 67 | 188 | 1.0 | 4.0 | 0.00 | 0.05 | 0.00 | 78 | 1007.7 |
| 20260509172003 | 67 | 234 | 1.0 | 8.0 | 0.00 | 0.05 | 0.00 | 78 | 1007.8 |
| 20260509171503 | 67 | 229 | 2.0 | 8.0 | 0.00 | 0.05 | 0.00 | 78 | 1007.8 |
| 20260509171003 | 67 | 224 | 1.0 | 6.0 | 0.00 | 0.05 | 0.00 | 77 | 1007.8 |
| 20260509170504 | 67 | 238 | 1.0 | 6.0 | 0.00 | 0.05 | 0.00 | 78 | 1007.8 |
| 20260509170004 | 66 | 226 | 1.0 | 6.0 | 0.00 | 0.05 | 0.00 | 77 | 1007.8 |
| 20260509165503 | 66 | 163 | 1.0 | 5.0 | 0.00 | 0.05 | 0.00 | 81 | 1007.8 |
| 20260509165217 | 66 | 161 | 1.0 | 5.0 | 0.00 | 0.05 | 0.00 | 80 | 1007.8 |
| 20260509164504 | 65 | 223 | 1.0 | 4.0 | 0.00 | 0.05 | 0.00 | 82 | 1007.9 |
| 20260509164003 | 64 | 222 | 1.0 | 6.0 | 0.00 | 0.05 | 0.00 | 83 | 1007.9 |
| 20260509163503 | 64 | 214 | 1.0 | 6.0 | 0.00 | 0.05 | 0.00 | 84 | 1008.0 |
| 20260509163003 | 63 | 228 | 1.0 | 4.0 | 0.00 | 0.05 | 0.00 | 84 | 1008.0 |
| 20260509162718 | 63 | 227 | 1.0 | 8.0 | 0.00 | 0.05 | 0.00 | 85 | 1008.0 |
| 20260509162003 | 62 | 233 | 1.0 | 8.0 | 0.00 | 0.05 | 0.00 | 85 | 1008.0 |
| 20260509161503 | 62 | 238 | 1.0 | 3.0 | 0.00 | 0.05 | 0.00 | 87 | 1008.0 |
| 20260509161003 | 62 | 230 | 1.0 | 3.0 | 0.00 | 0.05 | 0.00 | 88 | 1008.1 |
| 20260509160503 | 61 | 203 | 0.0 | 3.0 | 0.00 | 0.05 | 0.00 | 90 | 1008.0 |
| 20260509160003 | 61 | 177 | 0.0 | 3.0 | 0.00 | 0.05 | 0.00 | 91 | 1008.1 |
| 20260509155503 | 60 | 216 | 0.0 | 3.0 | 0.00 | 0.05 | 0.00 | 92 | 1008.0 |
| 20260509155217 | 60 | 217 | 0.0 | 2.0 | 0.00 | 0.05 | 0.00 | 92 | 1007.9 |
| 20260509154718 | 60 | 236 | 0.0 | 5.0 | 0.00 | 0.05 | 0.00 | 93 | 1007.9 |
| 20260509154004 | 59 | 240 | 0.0 | 5.0 | 0.00 | 0.05 | 0.00 | 96 | 1008.0 |
| 20260509153503 | 59 | 242 | 0.0 | 4.0 | 0.00 | 0.05 | 0.00 | 96 | 1007.9 |
| 20260509153003 | 59 | 239 | 0.0 | 4.0 | 0.00 | 0.05 | 0.00 | 96 | 1007.8 |
| 20260509152503 | 59 | 223 | 0.0 | 3.0 | 0.00 | 0.05 | 0.00 | 97 | 1007.7 |
| 20260509152219 | 59 | 227 | 0.0 | 3.0 | 0.00 | 0.05 | 0.00 | 97 | 1007.6 |
| 20260509151503 | 58 | 222 | 0.0 | 3.0 | 0.00 | 0.05 | 0.00 | 98 | 1007.6 |
| 20260509151219 | 58 | 224 | 0.0 | 3.0 | 0.00 | 0.05 | 0.00 | 98 | 1007.5 |
| 20260509150504 | 58 | 243 | 0.0 | 2.0 | 0.00 | 0.05 | 0.00 | 97 | 1007.6 |
| 20260509150003 | 58 | 228 | 0.0 | 2.0 | 0.00 | 0.05 | 0.00 | 97 | 1007.6 |
| 20260509145503 | 58 | 234 | 0.0 | 3.0 | 0.00 | 0.05 | 0.00 | 98 | 1007.6 |
| 20260509145003 | 57 | 241 | 0.0 | 3.0 | 0.00 | 0.05 | 0.00 | 98 | 1007.7 |
| 20260509144503 | 57 | 238 | 1.0 | 4.0 | 0.00 | 0.05 | 0.00 | 97 | 1007.7 |
| 20260509144003 | 57 | 234 | 0.0 | 4.0 | 0.00 | 0.05 | 0.00 | 97 | 1007.8 |
| 20260509143503 | 57 | 167 | 0.0 | 2.0 | 0.00 | 0.05 | 0.00 | 98 | 1007.8 |
| 20260509143218 | 57 | 193 | 0.0 | 2.0 | 0.00 | 0.05 | 0.00 | 98 | 1007.8 |
| 20260509142503 | 56 | 235 | 0.0 | 2.0 | 0.00 | 0.05 | 0.00 | 98 | 1007.7 |
| 20260509142003 | 56 | 193 | 0.0 | 1.0 | 0.00 | 0.05 | 0.00 | 98 | 1007.7 |
| 20260509141503 | 56 | 193 | 0.0 | 1.0 | 0.00 | 0.05 | 0.00 | 98 | 1007.8 |
| 20260509141003 | 56 | 142 | 0.0 | 2.0 | 0.00 | 0.05 | 0.00 | 97 | 1007.8 |
| 20260509140503 | 56 | 174 | 0.0 | 2.0 | 0.00 | 0.05 | 0.00 | 98 | 1007.9 |
| 20260509140004 | 56 | 236 | 0.0 | 1.0 | 0.00 | 0.05 | 0.00 | 98 | 1007.9 |
| 20260509135503 | 56 | 241 | 0.0 | 2.0 | 0.00 | 0.05 | 0.00 | 98 | 1007.9 |
| 20260509135218 | 56 | 236 | 0.0 | 2.0 | 0.00 | 0.05 | 0.00 | 98 | 1007.9 |
| 20260509134503 | 56 | 214 | 0.0 | 1.0 | 0.05 | 0.05 | 0.00 | 98 | 1007.7 |
| 20260509134218 | 55 | 232 | 0.0 | 1.0 | 0.05 | 0.05 | 0.00 | 98 | 1007.7 |
| 20260509133503 | 55 | 229 | 0.0 | 2.0 | 0.05 | 0.05 | 0.00 | 98 | 1007.6 |
| 20260509133004 | 55 | 236 | 0.0 | 5.0 | 0.05 | 0.05 | 0.00 | 98 | 1007.6 |
| 20260509132503 | 55 | 239 | 0.0 | 5.0 | 0.05 | 0.05 | 0.00 | 97 | 1007.6 |
| 20260509132003 | 54 | 236 | 0.0 | 2.0 | 0.05 | 0.05 | 0.00 | 97 | 1007.6 |
| 20260509131503 | 54 | 230 | 0.0 | 1.0 | 0.05 | 0.05 | 0.00 | 97 | 1007.6 |
| 20260509131003 | 54 | 192 | 0.0 | 3.0 | 0.05 | 0.05 | 0.00 | 97 | 1007.7 |
| 20260509130503 | 54 | 169 | 0.0 | 3.0 | 0.05 | 0.05 | 0.05 | 97 | 1007.7 |
| 20260509130003 | 55 | 240 | 0.0 | 3.0 | 0.05 | 0.05 | 0.05 | 97 | 1007.8 |
| 20260509125717 | 55 | 243 | 0.0 | 3.0 | 0.05 | 0.05 | 0.05 | 98 | 1007.8 |
| 20260509125003 | 55 | 112 | 0.0 | 1.0 | 0.00 | 0.00 | 0.00 | 98 | 1007.7 |
| 20260509124503 | 55 | 191 | 0.0 | 2.0 | 0.00 | 0.00 | 0.00 | 98 | 1007.6 |
| 20260509124217 | 55 | 214 | 0.0 | 2.0 | 0.00 | 0.00 | 0.00 | 98 | 1007.6 |
| 20260509123719 | 55 | 219 | 0.0 | 4.0 | 0.00 | 0.00 | 0.00 | 98 | 1007.7 |
| 20260509123003 | 54 | 213 | 0.0 | 4.0 | 0.00 | 0.00 | 0.00 | 98 | 1007.7 |
| 20260509122719 | 54 | 233 | 0.0 | 1.0 | 0.00 | 0.00 | 0.00 | 98 | 1007.6 |
| 20260509122003 | 54 | 232 | 0.0 | 3.0 | 0.00 | 0.00 | 0.00 | 98 | 1007.6 |
| 20260509121503 | 54 | 234 | 0.0 | 3.0 | 0.00 | 0.00 | 0.00 | 98 | 1007.6 |
| 20260509121003 | 54 | 233 | 0.0 | 2.0 | 0.00 | 0.00 | 0.00 | 98 | 1007.5 |
| 20260509120503 | 54 | 248 | 0.0 | 1.0 | 0.00 | 0.00 | 0.00 | 98 | 1007.4 |
| 20260509120004 | 54 | 0 | 0.0 | 0.0 | 0.00 | 0.00 | 0.00 | 98 | 1007.2 |
| 20260509115503 | 54 | 231 | 0.0 | 1.0 | 0.00 | 0.00 | 0.00 | 98 | 1007.1 |
| 20260509115003 | 54 | 234 | 0.0 | 1.0 | 0.00 | 0.00 | 0.00 | 98 | 1007.0 |
| 20260509114503 | 54 | 237 | 0.0 | 1.0 | 0.00 | 0.00 | 0.00 | 98 | 1006.9 |
| 20260509114003 | 54 | 230 | 0.0 | 1.0 | 0.00 | 0.00 | 0.00 | 98 | 1007.0 |
| 20260509113503 | 54 | 230 | 0.0 | 1.0 | 0.00 | 0.00 | 0.00 | 98 | 1006.9 |
| 20260509113004 | 54 | 0 | 0.0 | 0.0 | 0.00 | 0.00 | 0.00 | 98 | 1006.8 |
| 20260509112503 | 53 | 268 | 0.0 | 1.0 | 0.00 | 0.00 | 0.00 | 98 | 1006.8 |
| 20260509112217 | 53 | 268 | 0.0 | 1.0 | 0.00 | 0.00 | 0.00 | 98 | 1006.8 |
| 20260509111503 | 53 | 0 | 0.0 | 0.0 | 0.00 | 0.00 | 0.00 | 98 | 1006.7 |
| 20260509111003 | 53 | 239 | 0.0 | 1.0 | 0.00 | 0.00 | 0.00 | 98 | 1006.7 |
| 20260509110503 | 53 | 239 | 0.0 | 1.0 | 0.00 | 0.00 | 0.00 | 98 | 1006.7 |
| 20260509110003 | 52 | 0 | 0.0 | 0.0 | 0.00 | 0.00 | 0.00 | 98 | 1006.7 |
| 20260509105503 | 52 | 0 | 0.0 | 0.0 | 0.00 | 0.00 | 0.00 | 97 | 1006.7 |
| 20260509105003 | 52 | 0 | 0.0 | 0.0 | 0.00 | 0.00 | 0.00 | 97 | 1006.7 |
| 20260509104718 | 52 | 0 | 0.0 | 0.0 | 0.00 | 0.00 | 0.00 | 97 | 1006.7 |
| 20260509104003 | 52 | 0 | 0.0 | 0.0 | 0.00 | 0.00 | 0.00 | 97 | 1006.7 |
| 20260509103503 | 52 | 0 | 0.0 | 0.0 | 0.00 | 0.00 | 0.00 | 97 | 1006.6 |
| 20260509103003 | 52 | 0 | 0.0 | 0.0 | 0.00 | 0.00 | 0.00 | 97 | 1006.5 |
| 20260509102503 | 52 | 0 | 0.0 | 0.0 | 0.00 | 0.00 | 0.00 | 97 | 1006.4 |
| 20260509102003 | 52 | 0 | 0.0 | 0.0 | 0.00 | 0.00 | 0.00 | 97 | 1006.4 |
| 20260509101503 | 52 | 0 | 0.0 | 0.0 | 0.00 | 0.00 | 0.00 | 97 | 1006.3 |
| 20260509101003 | 52 | 0 | 0.0 | 0.0 | 0.00 | 0.00 | 0.00 | 97 | 1006.3 |
| 20260509100718 | 52 | 0 | 0.0 | 0.0 | 0.00 | 0.00 | 0.00 | 97 | 1006.3 |
| 20260509100219 | 52 | 0 | 0.0 | 0.0 | 0.00 | 0.00 | 0.00 | 97 | 1006.2 |
| 20260509095503 | 52 | 0 | 0.0 | 0.0 | 0.00 | 0.00 | 0.00 | 97 | 1006.2 |
| 20260509095003 | 52 | 0 | 0.0 | 0.0 | 0.00 | 0.00 | 0.00 | 97 | 1006.2 |
| 20260509094503 | 52 | 0 | 0.0 | 0.0 | 0.00 | 0.00 | 0.00 | 97 | 1006.2 |
| 20260509094003 | 53 | 0 | 0.0 | 0.0 | 0.00 | 0.00 | 0.00 | 97 | 1006.2 |
| 20260509093717 | 53 | 0 | 0.0 | 0.0 | 0.00 | 0.00 | 0.00 | 97 | 1006.1 |
| 20260509093218 | 53 | 0 | 0.0 | 0.0 | 0.00 | 0.00 | 0.00 | 97 | 1006.1 |
| 20260509092503 | 53 | 0 | 0.0 | 0.0 | 0.00 | 0.00 | 0.00 | 97 | 1006.0 |
| 20260509092003 | 53 | 0 | 0.0 | 0.0 | 0.00 | 0.00 | 0.00 | 97 | 1006.1 |
| 20260509091503 | 53 | 0 | 0.0 | 0.0 | 0.00 | 0.00 | 0.00 | 97 | 1006.1 |